FIN62 RJTT-EFHK

Flight info

Callsign FIN62
Flight time N/A
Altitude 35000
Route ROVER2B INUBO Y808 PUTER A590 PASRO/N0494F370 A590 POWAL DCT OPAKE DCT MARCC DCT JUJXI/N0483F380 DCT 80N165W/N0482F400 DCT DEKMO DCT 8930N06000W/M085F390 82N020E/N0482F410 80N021E DCT BARUX DCT IBOSU Y86 LUSEP LUSEP4A
Aircraft A359/H-SDE2E3GHIJ3J4J5LM1ORWXY/LB1D1

Departure

Time 2026-02-21 23:45
Airport Tokyo Haneda International Airport (RJTT)

Arrival

Time N/A
Airport Helsinki Vantaa Airport (EFHK)
Time Latitude Longitude Altitude Speed Heading
2026-02-21 22:41 35.54910 139.76733 29 ft 0 kts 150°
2026-02-21 23:19 35.54905 139.76736 29 ft 5 kts 150°
2026-02-21 23:19 35.54875 139.76757 29 ft 5 kts 150°
2026-02-21 23:19 35.54865 139.76764 29 ft 0 kts 150°
2026-02-21 23:20 35.54865 139.76763 30 ft 0 kts 150°
2026-02-21 23:21 35.54865 139.76762 30 ft 1 kts 150°
2026-02-21 23:21 35.54910 139.76733 30 ft 0 kts 150°
2026-02-21 23:30 35.54914 139.76730 29 ft 2 kts 150°
2026-02-21 23:30 35.54930 139.76719 29 ft 2 kts 149°
2026-02-21 23:30 35.54942 139.76709 26 ft 3 kts 131°
2026-02-21 23:31 35.54950 139.76692 27 ft 3 kts 79°
2026-02-21 23:31 35.54943 139.76671 28 ft 3 kts 58°
2026-02-21 23:31 35.54936 139.76658 28 ft 0 kts 60°
2026-02-21 23:34 35.54937 139.76660 28 ft 0 kts 60°
2026-02-21 23:34 35.54948 139.76683 28 ft 5 kts 59°
2026-02-21 23:35 35.54972 139.76734 27 ft 9 kts 61°
2026-02-21 23:35 35.55006 139.76807 29 ft 10 kts 60°
2026-02-21 23:35 35.55043 139.76887 29 ft 11 kts 59°
2026-02-21 23:35 35.55083 139.76971 29 ft 12 kts 60°
2026-02-21 23:36 35.55124 139.77060 29 ft 12 kts 60°
2026-02-21 23:36 35.55113 139.77146 29 ft 11 kts 135°
2026-02-21 23:36 35.55047 139.77199 29 ft 12 kts 150°
2026-02-21 23:36 35.54966 139.77256 29 ft 17 kts 150°
2026-02-21 23:37 35.54859 139.77332 29 ft 19 kts 150°
2026-02-21 23:37 35.54737 139.77418 29 ft 21 kts 150°
2026-02-21 23:37 35.54612 139.77508 29 ft 21 kts 149°
2026-02-21 23:37 35.54508 139.77580 29 ft 12 kts 149°
2026-02-21 23:38 35.54491 139.77668 29 ft 11 kts 83°
2026-02-21 23:38 35.54454 139.77745 29 ft 12 kts 144°
2026-02-21 23:38 35.54407 139.77824 29 ft 12 kts 87°
2026-02-21 23:38 35.54442 139.77912 30 ft 11 kts 60°
2026-02-21 23:39 35.54491 139.78015 31 ft 19 kts 59°
2026-02-21 23:39 35.54546 139.78158 29 ft 15 kts 96°
2026-02-21 23:39 35.54474 139.78243 30 ft 16 kts 149°
2026-02-21 23:39 35.54363 139.78322 30 ft 20 kts 150°
2026-02-21 23:40 35.54258 139.78396 30 ft 18 kts 150°
2026-02-21 23:40 35.54173 139.78465 30 ft 11 kts 124°
2026-02-21 23:40 35.54189 139.78548 30 ft 10 kts 62°
2026-02-21 23:40 35.54229 139.78639 31 ft 14 kts 60°
2026-02-21 23:41 35.54286 139.78757 31 ft 17 kts 59°
2026-02-21 23:41 35.54350 139.78892 31 ft 22 kts 60°
2026-02-21 23:41 35.54439 139.79079 31 ft 28 kts 60°
2026-02-21 23:41 35.54546 139.79306 30 ft 33 kts 59°
2026-02-21 23:42 35.54620 139.79461 30 ft 17 kts 60°
2026-02-21 23:42 35.54620 139.79798 29 ft 16 kts 150°
2026-02-21 23:43 35.54522 139.79867 29 ft 17 kts 149°
2026-02-21 23:43 35.54420 139.79939 29 ft 17 kts 150°
2026-02-21 23:43 35.54315 139.80013 30 ft 18 kts 150°
2026-02-21 23:43 35.54223 139.80080 30 ft 12 kts 150°
2026-02-21 23:44 35.54196 139.80159 30 ft 11 kts 71°
2026-02-21 23:44 35.54233 139.80238 30 ft 11 kts 58°
2026-02-21 23:44 35.54291 139.80276 30 ft 9 kts 353°
2026-02-21 23:44 35.54398 139.80206 30 ft 39 kts 330°
2026-02-21 23:45 35.54837 139.79896 30 ft 105 kts 330°
2026-02-21 23:45 35.55647 139.79325 30 ft 161 kts 330°
2026-02-21 23:45 35.56696 139.78584 473 ft 175 kts 332°
2026-02-21 23:45 35.57810 139.78102 1201 ft 174 kts
2026-02-21 23:46 35.58915 139.78714 1422 ft 186 kts 43°
2026-02-21 23:46 35.59878 139.79906 1547 ft 208 kts 47°
2026-02-21 23:46 35.60978 139.81206 1726 ft 231 kts 40°
2026-02-21 23:46 35.62311 139.82452 1954 ft 249 kts 36°
2026-02-21 23:47 35.63771 139.83693 2392 ft 260 kts 34°
2026-02-21 23:47 35.65426 139.84652 2865 ft 268 kts 15°
2026-02-21 23:47 35.67229 139.85149 3449 ft 270 kts
2026-02-21 23:47 35.69097 139.85494 4047 ft 271 kts 360°
2026-02-21 23:48 35.70933 139.85155 4631 ft 266 kts 334°
2026-02-21 23:48 35.72512 139.84017 5259 ft 262 kts 320°
2026-02-21 23:48 35.74003 139.82704 5799 ft 266 kts 323°
2026-02-21 23:48 35.75744 139.81835 6260 ft 278 kts 348°
2026-02-21 23:49 35.77684 139.82056 6761 ft 286 kts 15°
2026-02-21 23:49 35.79537 139.82920 7303 ft 288 kts 21°
2026-02-21 23:49 35.81314 139.84085 7858 ft 291 kts 35°
2026-02-21 23:49 35.82709 139.85886 8365 ft 294 kts 59°
2026-02-21 23:50 35.83330 139.88266 8883 ft 294 kts 88°
2026-02-21 23:50 35.83208 139.90772 9444 ft 294 kts 98°
2026-02-21 23:50 35.82919 139.93272 10012 ft 296 kts 99°
2026-02-21 23:50 35.82605 139.95821 10343 ft 306 kts 99°
2026-02-21 23:51 35.82285 139.98469 10557 ft 319 kts 99°
2026-02-21 23:51 35.81958 140.01232 10774 ft 332 kts 99°
2026-02-21 23:51 35.81623 140.04103 10990 ft 345 kts 99°
2026-02-21 23:51 35.81278 140.07074 11192 ft 356 kts 99°
2026-02-21 23:52 35.80932 140.10058 11402 ft 367 kts 99°
2026-02-21 23:52 35.80559 140.13280 11612 ft 378 kts 99°
2026-02-21 23:52 35.80182 140.16530 11808 ft 388 kts 99°
2026-02-21 23:52 35.79795 140.19854 12083 ft 395 kts 99°
2026-02-21 23:53 35.79403 140.23216 12426 ft 398 kts 99°
2026-02-21 23:53 35.79012 140.26566 12803 ft 402 kts 99°
2026-02-21 23:53 35.78608 140.30023 13195 ft 405 kts 99°
2026-02-21 23:53 35.78209 140.33423 13575 ft 408 kts 99°
2026-02-21 23:54 35.77801 140.36889 13960 ft 410 kts 99°
2026-02-21 23:54 35.77393 140.40346 14290 ft 413 kts 99°
2026-02-21 23:54 35.76978 140.43860 14643 ft 416 kts 99°
2026-02-21 23:54 35.76559 140.47396 14992 ft 419 kts 99°
2026-02-21 23:55 35.76136 140.50959 15312 ft 421 kts 99°
2026-02-21 23:55 35.75710 140.54541 15672 ft 424 kts 99°
2026-02-21 23:55 35.75279 140.58147 16024 ft 427 kts 99°
2026-02-21 23:55 35.74845 140.61775 16353 ft 429 kts 99°
2026-02-21 23:56 35.74408 140.65416 16722 ft 432 kts 99°
2026-02-21 23:56 35.73965 140.69092 17070 ft 435 kts 99°
2026-02-21 23:56 35.73520 140.72781 17412 ft 437 kts 99°
2026-02-21 23:56 35.73071 140.76495 17742 ft 440 kts 99°
2026-02-21 23:57 35.72495 140.80201 18074 ft 442 kts 105°
2026-02-21 23:57 35.71619 140.83835 18395 ft 444 kts 109°
2026-02-21 23:57 35.70609 140.87437 18681 ft 447 kts 110°
2026-02-21 23:57 35.69530 140.91033 18966 ft 449 kts 111°
2026-02-21 23:58 35.68441 140.94591 19265 ft 451 kts 111°
2026-02-21 23:58 35.67336 140.98204 19549 ft 453 kts 111°
2026-02-21 23:58 35.66236 141.01838 19826 ft 455 kts 111°
2026-02-21 23:58 35.65137 141.05502 20118 ft 457 kts 110°
2026-02-21 23:59 35.64042 141.09179 20396 ft 459 kts 110°
2026-02-21 23:59 35.62945 141.12878 20662 ft 462 kts 110°
2026-02-21 23:59 35.61843 141.16600 20915 ft 464 kts 110°
2026-02-21 23:59 35.60739 141.20328 21252 ft 465 kts 110°
2026-02-22 00:00 35.59625 141.24080 21523 ft 468 kts 110°